Showing default

OPS 6582 (TRANSIT 5E-5), 959

Orbit data source: Space-Track

OPS 6582 (TRANSIT 5E-5), 959 is a payload satellite owned by USN BuWeps (US) in LEO that was launched on Sun, 13 Dec 1964 UTC via a THOR ABLESTAR launch vehicle from the Air Force Western Test Range (AFWTR). Payloads include a variety of satellites, spacecraft, and rockets equipped with specific instruments for various scientific and technological missions. These include communications satellites like Starlink; space stations such as the ISS; scientific satellites like the Hubble; Earth observation satellites from companies like Planet Labs, Umbra, and HawkEye 360; GPS; miniature CubeSats for education and research; and military/defense satellites.

Loading next visibility...
OPS 6582 (TRANSIT 5E-5) details
Identifier
959, 1964-083C
Orbit
LEO
Last TLE update11 hours ago
Origin
Flag of USUSN BuWeps (US)
ManufacturerAPL
MissionCivil Astronomy
Bus & MotorTRANSIT 5, Unknown motor
Mass77 kg wet, 77 kg dry
Launch date (UTC)
1964-12-13 (60 years ago)
Launch vehicle
THOR ABLESTAR
Launch site
Air Force Western Test Range (AFWTR)
Object type
Payload
Rocket body
Debris
Shape & HBROct Cyl + 4 Pan + 1 Rod, 5.9 m
Radar Cross Section1.914 m², Large (>1 m²)

Expand to show TLE details & history

TLE from 11 hours ago
0 OPS 6582 (TRANSIT 5E-5)
1 00959U 64083C   25024.51235883  .00000410  00000-0  51483-3 0  9991
2 00959  89.9985 186.9528 0042134   7.6272  56.8889 13.62266545980944
Epoch: 2025-01-24T12:17Z
Definitive object data (Epoch: 2025-01-24T12:17:47.802Z)
Latitude65.00414°
Longitude-121.56764°
Altitude1,021.818 km
Speed7.355 km/s
True Right ascension12h 27m 49s
True Declination64° 52' 37"
Sunlit
Object was in daylight at TLE epoch
Visualization TLE readout
Latitude-53.80191°
Longitude58.43113°
Altitude1,069.503 km
Speed7.306 km/s
Apparent Right ascension16h 15m 42s
Apparent Declination-85° 22' 04"
Sunlit
Object is in daylight
Visualization observer readout
Local Sidereal Time00:59:53
Azimuth184.767° SSW
Elevation-42.863°
Doppler factor1
Orbital elements
Apogee altitude1,055.688 km
Perigee altitude993.308 km
Semi-major axis7,402.635 km
Eccentricity0.0042134
Inclination89.9985°
RAAN186.9528°
Arg. of periapsis7.6272°
True anomaly57.29448°
Mean anomaly56.8889°
Eccentric anomaly57.09157°
Mean motion3.40772 °/min
BSTAR0.00051483
Orbital period105.64 mins
Loading maneuver chart data...

OPS 6582 (TRANSIT 5E-5) Visibility forecast

Observer location: undefined°, undefined

Span
Click to sort rows by Start time (UTC) header in descending order
Start Az.
Max El. time (UTC)
Max El. Az.
Max El.
End time (UTC)
End Az.
4 mins2025-01-25 00:57:11.365Z308.15° NW2025-01-25 00:59:11.365Z289.323° WNW12.077°2025-01-25 01:01:11.365Z270.917° WNW
10 mins2025-01-25 11:01:11.365Z173.747° S2025-01-25 11:05:11.365Z150.42° SSE44.659°2025-01-25 11:11:11.365Z358.874° N
4 mins2025-01-25 12:50:11.365Z267.748° W2025-01-25 12:52:11.365Z287.78° WNW12.635°2025-01-25 12:54:11.365Z307.084° NW
10 mins2025-01-25 22:05:11.365Z29.827° NE2025-01-25 22:09:11.365Z79.376° E28.593°2025-01-25 22:15:11.365Z146.495° SSE
|